Weather History for Capri, Italy

Change the Weather History Date:

Tuesday, September 3, 2013

  Actual Average Record
Temperature  
Mean Temperature 80 °F -  
Max Temperature 92 °F - - ()
Min Temperature 69 °F - - ()
Cooling Degree Days 16    
Growing Degree Days 30 (Base 50)    
Moisture  
Dew Point 69 °F    
Average Humidity 69    
Maximum Humidity 100    
Minimum Humidity 44    
Precipitation  
Precipitation 0.00 in - - ()
Sea Level Pressure  
Sea Level Pressure 30.18 in    
Wind  
Wind Speed 2 mph ()    
Max Wind Speed 4 mph    
Max Gust Speed -    
Visibility 12.0 miles    
Events      
T = Trace of Precipitation, MM = Missing Value Source: Averaged Metar Reports

Daily Weather History Graph

Daily Weather History Graph

Search for Another Location

Airport:

Trip Planner

Search our weather history database for the weather conditions in past years. The results will help you decide how hot, cold, wet, or windy it might be!

Date:

Astronomy

Sep. 03, 2013 Rise Set
Actual Time 6:32 AM CEST 7:32 PM CEST
Civil Twilight 6:04 AM CEST 7:59 PM CEST
Nautical Twilight 5:31 AM CEST 8:33 PM CEST
Astronomical Twilight 4:56 AM CEST 9:07 PM CEST
Moon 4:29 AM CEST (9/3) 6:09 PM CEST (9/3)
Length of Visible Light 13h 55m
Length of Day
12h 59m
Waning Crescent, 4% of the Moon is Illuminated
Sep 3
Waning Crescent
Sep 5
New
Sep 12
First Quarter
Sep 19
Full
Sep 27
Last Quarter

Hourly Weather History & Observations

Time (CEST) Temp. Heat Index Dew Point Humidity Pressure Visibility Wind Dir Wind Speed Gust Speed Precip Events Conditions
5:55 AM 73.4 °F - 69.8 °F 88% 30.15 in - North - - N/A   Clear
6:55 AM 71.6 °F - 64.4 °F 78% 30.15 in - North - - N/A   Clear
7:55 AM 69.8 °F - 64.4 °F 83% 30.18 in - North - - N/A   Clear
8:55 AM 71.6 °F - 64.4 °F 78% 30.18 in - North - - N/A   Clear
9:55 AM 75.2 °F - 68.0 °F 78% 30.18 in - North - - N/A   Clear
10:55 AM 80.6 °F 83.9 °F 69.8 °F 70% 30.21 in - North - - N/A   Clear
11:00 AM 81 °F - 70 °F 62% 30.19 in 12 mi 1.2 mph - -  
11:55 AM 80.6 °F 83.2 °F 68.0 °F 65% 30.21 in - North - - N/A   Clear
12:55 PM 82.4 °F 87.2 °F 71.6 °F 70% 30.21 in - North - - N/A   Clear
1:55 PM 84.2 °F 87.3 °F 68.0 °F 58% 30.21 in - North - - N/A   Clear
2:00 PM 84 °F - 68 °F 50% 30.19 in 12 mi 3.5 mph - -  
2:55 PM 87.8 °F 91.4 °F 68.0 °F 52% 30.21 in - North - - N/A   Clear
3:55 PM 91.4 °F 95.4 °F 68.0 °F 46% 30.18 in - North - - N/A   Clear
4:55 PM 91.4 °F 100.1 °F 73.4 °F 55% 30.18 in - North - - N/A   Clear
5:00 PM 92 °F - 73 °F 44% 30.16 in 12 mi 3.5 mph - -  
5:55 PM 87.8 °F 93.8 °F 71.6 °F 58% 30.18 in - North - - N/A   Clear
6:55 PM 82.4 °F 87.2 °F 71.6 °F 70% 30.18 in - North - - N/A   Clear
7:55 PM 77.0 °F - 73.4 °F 89% 30.18 in - North - - N/A   Clear
8:55 PM 75.2 °F - 75.2 °F 100% 30.18 in - North - - N/A   Clear
9:55 PM 75.2 °F - 75.2 °F 100% 30.18 in - North - - N/A   Clear
10:55 PM 75.2 °F - 64.4 °F 69% 30.18 in - North - - N/A   Clear
11:00 PM 75 °F - 65 °F 63% 30.18 in 12 mi 1.2 mph - -  
11:55 PM 75.2 °F - 59.0 °F 57% 30.18 in - North - - N/A   Clear